FW0069 Weather Reports


Display with metric or nautical units.
time (UTC)temp
F
wind
direction
speed
MPH
gust
MPH
rain 1hr
in
rain 24hr
in
rain mn
in
humidity
%
barometer
mb
20260502220004 84 360 3.0 10.0 0.00 0.00 0.00 7 1014.2
20260502215034 84 360 2.0 10.0 0.00 0.00 0.00 6 1014.3
20260502214504 85 360 4.0 10.0 0.00 0.00 0.00 6 1014.6
20260502214034 85 145 3.0 11.0 0.00 0.00 0.00 6 1014.6
20260502213534 85 50 2.0 11.0 0.00 0.00 0.00 6 1014.6
20260502213034 85 91 0.0 11.0 0.00 0.00 0.00 6 1014.8
20260502212505 85 134 2.0 9.0 0.00 0.00 0.00 6 1014.8
20260502212034 84 360 2.0 11.0 0.00 0.00 0.00 7 1015.1
20260502211504 85 360 2.0 11.0 0.00 0.00 0.00 7 1015.1
20260502211004 84 150 4.0 8.0 0.00 0.00 0.00 8 1015.1
20260502210504 84 360 3.0 10.0 0.00 0.00 0.00 8 1015.2
20260502210004 84 360 3.0 10.0 0.00 0.00 0.00 8 1015.3
20260502205504 84 145 4.0 10.0 0.00 0.00 0.00 7 1015.3
20260502205004 84 360 2.0 9.0 0.00 0.00 0.00 8 1015.3
20260502204004 84 90 9.0 9.0 0.00 0.00 0.00 7 1015.4
20260502203534 85 164 2.0 11.0 0.00 0.00 0.00 6 1015.5
20260502202504 84 360 2.0 14.0 0.00 0.00 0.00 6 1015.8
20260502202004 84 360 3.0 14.0 0.00 0.00 0.00 7 1016.0
20260502201004 84 360 6.0 10.0 0.00 0.00 0.00 8 1016.1
20260502200534 84 360 0.0 10.0 0.00 0.00 0.00 7 1016.3
20260502200004 83 360 5.0 11.0 0.00 0.00 0.00 8 1016.0
20260502195034 84 360 3.0 10.0 0.00 0.00 0.00 8 1016.5
20260502194534 84 360 5.0 10.0 0.00 0.00 0.00 7 1016.5
20260502194004 84 140 5.0 8.0 0.00 0.00 0.00 9 1016.6
20260502193504 83 175 3.0 8.0 0.00 0.00 0.00 8 1016.7
20260502193004 83 360 4.0 8.0 0.00 0.00 0.00 9 1016.8
20260502192504 84 85 6.0 10.0 0.00 0.00 0.00 8 1016.9
20260502192034 83 360 3.0 10.0 0.00 0.00 0.00 8 1017.0
20260502191504 83 360 6.0 8.0 0.00 0.00 0.00 9 1017.0
20260502191034 83 360 4.0 10.0 0.00 0.00 0.00 8 1016.9
20260502190534 82 145 0.0 11.0 0.00 0.00 0.00 10 1017.1
20260502190004 83 360 4.0 11.0 0.00 0.00 0.00 10 1017.3
20260502185034 83 135 5.0 10.0 0.00 0.00 0.00 10 1017.8
20260502184504 81 105 4.0 10.0 0.00 0.00 0.00 10 1017.8
20260502184004 82 360 6.0 10.0 0.00 0.00 0.00 9 1017.7
20260502183005 82 360 2.0 8.0 0.00 0.00 0.00 10 1018.0
20260502182034 81 360 4.0 12.0 0.00 0.00 0.00 10 1018.1
20260502181504 82 360 2.0 12.0 0.00 0.00 0.00 10 1018.2
20260502181035 82 122 7.0 12.0 0.00 0.00 0.00 10 1018.2
20260502180504 82 360 2.0 9.0 0.00 0.00 0.00 10 1018.2
20260502164033 77 360 4.0 7.0 0.00 0.00 0.00 12 1018.4
20260502163504 77 360 7.0 7.0 0.00 0.00 0.00 13 1018.5
20260502163034 77 360 2.0 6.0 0.00 0.00 0.00 13 1018.5
20260502161533 76 360 2.0 8.0 0.00 0.00 0.00 14 1018.3
20260502161033 76 360 4.0 6.0 0.00 0.00 0.00 14 1018.3
20260502160533 76 182 4.0 9.0 0.00 0.00 0.00 14 1018.4
20260502151503 70 360 4.0 5.0 0.00 0.00 0.00 14 1017.9
20260502151034 70 360 3.0 6.0 0.00 0.00 0.00 15 1017.9
20260502150505 69 360 2.0 6.0 0.00 0.00 0.00 14 1017.9
20260502130533 62 360 1.0 4.0 0.00 0.00 0.00 17 1016.8
20260502123503 63 360 0.0 5.0 0.00 0.00 0.00 16 1016.6
20260502122533 64 360 3.0 5.0 0.00 0.00 0.00 16 1016.7
20260502122004 64 360 3.0 6.0 0.00 0.00 0.00 16 1016.6
20260502121503 64 360 1.0 6.0 0.00 0.00 0.00 16 1016.6
20260502121004 64 360 1.0 5.0 0.00 0.00 0.00 16 1016.6
20260502120533 64 360 2.0 5.0 0.00 0.00 0.00 16 1016.5
20260502115503 64 360 2.0 5.0 0.00 0.00 0.00 16 1016.4
20260502115033 64 360 1.0 6.0 0.00 0.00 0.00 16 1016.4
20260502114534 65 360 2.0 6.0 0.00 0.00 0.00 15 1016.5
20260502113503 65 360 3.0 5.0 0.00 0.00 0.00 15 1016.5
20260502113034 65 235 2.0 5.0 0.00 0.00 0.00 15 1016.5
20260502112503 66 360 1.0 5.0 0.00 0.00 0.00 15 1016.5
20260502112033 66 360 1.0 4.0 0.00 0.00 0.00 15 1016.4
20260502111033 66 360 4.0 6.0 0.00 0.00 0.00 15 1016.4
20260502110503 67 360 1.0 5.0 0.00 0.00 0.00 14 1016.7
20260502105033 66 360 1.0 7.0 0.00 0.00 0.00 14 1016.7
20260502104503 66 360 5.0 7.0 0.00 0.00 0.00 14 1016.6
20260502104033 66 360 1.0 7.0 0.00 0.00 0.00 14 1016.6
20260502103533 66 360 5.0 7.0 0.00 0.00 0.00 14 1016.6
20260502102533 66 25 0.0 9.0 0.00 0.00 0.00 15 1016.6
20260502102033 66 26 1.0 9.0 0.00 0.00 0.00 14 1016.7
20260502101533 66 360 8.0 8.0 0.00 0.00 0.00 14 1016.6
20260502101003 66 360 4.0 7.0 0.00 0.00 0.00 14 1016.7
20260502100503 66 273 3.0 3.0 0.00 0.00 0.00 15 1016.7
20260502091003 66 351 2.0 5.0 0.00 0.00 0.00 14 1016.6
20260502090503 66 338 5.0 5.0 0.00 0.00 0.00 15 1016.7
20260502071503 70 298 0.0 2.0 0.00 0.00 0.00 13 1016.5
20260502070033 71 300 1.0 2.0 0.00 0.00 0.00 12 1016.5
20260502065533 71 298 0.0 2.0 0.00 0.00 0.00 12 1016.4
20260502065033 72 360 2.0 3.0 0.00 0.00 0.00 12 1016.6
20260502064533 72 298 1.0 5.0 0.00 0.00 0.00 11 1016.5
20260502064034 72 299 2.0 5.0 0.00 0.00 0.00 11 1016.5
20260502063533 73 284 1.0 5.0 0.00 0.00 0.00 10 1016.4
20260502063033 73 15 2.0 5.0 0.00 0.00 0.00 10 1016.3
20260502062533 73 29 3.0 6.0 0.00 0.00 0.00 10 1016.2
20260502062033 73 14 3.0 7.0 0.00 0.00 0.00 10 1016.4
20260502061533 73 18 2.0 7.0 0.00 0.00 0.00 9 1016.3
20260502060532 73 360 5.0 10.0 0.00 0.00 0.00 10 1016.0
20260502055533 73 80 1.0 9.0 0.00 0.00 0.00 10 1016.1
20260502055032 73 56 2.0 10.0 0.00 0.00 0.00 10 1016.0
20260502054533 74 49 4.0 10.0 0.00 0.00 0.00 10 1015.9
20260502054032 74 44 8.0 13.0 0.00 0.00 0.00 10 1016.0
20260502053032 74 79 3.0 12.0 0.00 0.00 0.00 10 1016.0
20260502052533 74 46 7.0 14.0 0.00 0.00 0.00 10 1015.9
20260502052033 74 40 8.0 16.0 0.00 0.00 0.00 10 1015.9
20260502051532 74 67 4.0 16.0 0.00 0.00 0.00 10 1015.8
20260502051033 74 360 6.0 12.0 0.00 0.00 0.00 10 1015.7
20260502050533 74 70 5.0 10.0 0.00 0.00 0.00 10 1015.8
20260502050032 75 47 3.0 7.0 0.00 0.00 0.00 10 1015.8
20260502045033 75 53 1.0 5.0 0.00 0.00 0.00 10 1015.5
20260502044533 76 48 1.0 5.0 0.00 0.00 0.00 10 1015.6
20260502044033 76 46 3.0 9.0 0.00 0.00 0.00 10 1015.4
20260502043533 76 32 2.0 9.0 0.00 0.00 0.00 10 1015.3
20260502043032 76 46 5.0 9.0 0.00 0.00 0.00 9 1015.3
20260502042032 76 32 8.0 10.0 0.00 0.00 0.00 9 1015.0
20260502041532 77 47 6.0 10.0 0.00 0.00 0.00 9 1015.1
20260502041032 77 27 9.0 10.0 0.00 0.00 0.00 9 1015.1
20260502040534 77 39 4.0 9.0 0.00 0.00 0.00 9 1015.0
20260502040033 77 60 9.0 10.0 0.00 0.00 0.00 9 1015.0
20260502035533 77 56 3.0 10.0 0.00 0.00 0.00 9 1014.6
20260502035032 77 24 6.0 8.0 0.00 0.00 0.00 9 1014.5
20260502034533 77 38 1.0 8.0 0.00 0.00 0.00 9 1014.5
20260502034032 77 37 2.0 8.0 0.00 0.00 0.00 9 1014.5
20260502033533 78 34 4.0 9.0 0.00 0.00 0.00 9 1014.2
20260502033033 78 36 5.0 10.0 0.00 0.00 0.00 9 1014.2
20260502032533 78 34 5.0 10.0 0.00 0.00 0.00 9 1014.1
20260502032033 78 24 4.0 10.0 0.00 0.00 0.00 9 1014.0
20260502031533 78 13 7.0 10.0 0.00 0.00 0.00 9 1013.9
20260502031034 79 30 6.0 12.0 0.00 0.00 0.00 8 1014.0
20260502030033 79 31 6.0 14.0 0.00 0.00 0.00 8 1013.9
20260502025532 79 19 2.0 12.0 0.00 0.00 0.00 8 1013.5
20260502025032 79 28 5.0 12.0 0.00 0.00 0.00 8 1013.4
20260502024534 80 45 4.0 8.0 0.00 0.00 0.00 8 1013.5
20260502024033 80 36 6.0 8.0 0.00 0.00 0.00 8 1013.4
20260502023532 80 355 2.0 8.0 0.00 0.00 0.00 8 1013.3
20260502023033 80 18 3.0 6.0 0.00 0.00 0.00 8 1013.4
20260502022003 81 360 3.0 10.0 0.00 0.00 0.00 9 1013.2
20260502021532 81 360 5.0 10.0 0.00 0.00 0.00 8 1013.3
20260502021033 81 360 5.0 7.0 0.00 0.00 0.00 8 1013.2
20260502020032 82 360 4.0 10.0 0.00 0.00 0.00 8 1013.3
20260502015532 82 360 2.0 10.0 0.00 0.00 0.00 8 1012.7
20260502014033 82 360 6.0 11.0 0.00 0.00 0.00 8 1012.6
20260502013502 82 360 2.0 9.0 0.00 0.00 0.00 9 1012.5
20260502013033 83 360 5.0 12.0 0.00 0.00 0.00 8 1012.7
20260502012533 83 360 3.0 12.0 0.00 0.00 0.00 8 1012.8
20260502012032 83 360 5.0 10.0 0.00 0.00 0.00 8 1012.8
20260502011532 83 360 3.0 13.0 0.00 0.00 0.00 8 1012.8
20260502011032 84 360 6.0 13.0 0.00 0.00 0.00 8 1012.8
20260502010532 84 360 6.0 12.0 0.00 0.00 0.00 9 1012.7
20260502010032 84 360 4.0 13.0 0.00 0.00 0.00 9 1012.6
20260502005532 84 279 3.0 13.0 0.00 0.00 0.00 8 1012.4
20260502005032 84 360 5.0 10.0 0.00 0.00 0.00 8 1012.4
20260502004032 84 360 4.0 8.0 0.00 0.00 0.00 9 1012.6
20260502003532 84 323 3.0 8.0 0.00 0.00 0.00 9 1012.6
20260502003032 84 360 3.0 8.0 0.00 0.00 0.00 9 1012.5
20260502002533 84 315 4.0 8.0 0.00 0.00 0.00 8 1012.5
20260502002032 84 16 4.0 8.0 0.00 0.00 0.00 8 1012.5
20260502001532 84 19 2.0 6.0 0.00 0.00 0.00 8 1012.6
20260502001032 84 151 1.0 10.0 0.00 0.00 0.00 9 1012.6
20260502000533 84 34 6.0 10.0 0.00 0.00 0.00 9 1012.6
20260502000032 83 25 4.0 8.0 0.00 0.00 0.00 9 1012.5
20260501235503 84 123 2.0 9.0 0.00 0.00 0.00 8 1012.7
20260501235032 84 231 0.0 15.0 0.00 0.00 0.00 9 1012.9
20260501234504 84 360 7.0 15.0 0.00 0.00 0.00 8 1012.8
20260501234032 85 281 2.0 11.0 0.00 0.00 0.00 8 1012.8
20260501233532 84 360 6.0 11.0 0.00 0.00 0.00 9 1012.7
20260501233032 85 79 3.0 14.0 0.00 0.00 0.00 8 1012.7
20260501231502 85 274 1.0 11.0 0.00 0.00 0.00 9 1013.1
20260501231032 85 360 4.0 11.0 0.00 0.00 0.00 8 1013.0
20260501230532 85 360 5.0 11.0 0.00 0.00 0.00 8 1013.0
20260501230032 84 360 4.0 10.0 0.00 0.00 0.00 9 1013.1
20260501225532 84 289 5.0 10.0 0.00 0.00 0.00 8 1013.0
20260501225032 84 351 7.0 10.0 0.00 0.00 0.00 10 1013.0
20260501224533 83 172 4.0 6.0 0.00 0.00 0.00 11 1013.3
20260501224032 83 177 2.0 6.0 0.00 0.00 0.00 10 1013.3
20260501223032 85 126 4.0 8.0 0.00 0.00 0.00 10 1013.6
20260501222532 84 61 3.0 11.0 0.00 0.00 0.00 11 1013.4
20260501222032 84 113 2.0 11.0 0.00 0.00 0.00 10 1013.5
20260501221532 83 82 5.0 8.0 0.00 0.00 0.00 10 1013.6
20260501221032 84 286 1.0 11.0 0.00 0.00 0.00 11 1013.7